CZ-6A DEB, 60823

Orbit data source: Space-Track

CZ-6A DEB, 60823 is space debris in LEO originally from a launch on Tue, 06 Aug 2024 UTC launched from the Taiyaun Space Center, China (TSC). Debris objects in space refer to the collection of defunct objects orbiting the Earth. Examples of debris include non-operational satellites, rocket bodies, and fragments generated from explosions, collisions, or faulty payload assembly.

Loading next visibility...
Identifier
60823, 2024-140HA
Orbit
LEO
Country
Flag of CNCN / PRC
Related business
Manufacturer
SAST
Mission
Spacecraft
Bus & Motor
Unknown
Mass
Unknown
Launch date (UTC)
2024-08-06 (2 years ago)
Launch vehicle
Unknown
Launch site
Taiyaun Space Center, China (TSC)
Object type
Payload
Rocket body
Debris
Shape & HBR
Unknown shape, 0.2 m
Radar Cross Section
Medium (>0.1 m² and <1 m²)

Expand to show TLE details & history
Last TLE update: 13 hours ago

TLE from 13 hours ago
0 CZ-6A DEB
1 60823U 24140HA  26171.29590547  .00000424  00000-0  32040-3 0  9990
2 60823  89.0320 281.5856 0231794 297.7542  60.0292 13.80948082 93251
Epoch: 2026-06-20T07:06Z
TLE epoch observation values (Epoch: 2026-06-20T07:06:06.232Z)
Latitude
-0.00006°
Longitude
-93.45294°
Altitude
881.542 km
Speed
7.453 km/s
True Right ascension
18h 46m 20s
True Declination
0° 00' 00"
Sunlit
Object was in full shadow at epoch
Visualization orbit readout
Latitude
Unknown
Longitude
Unknown
Altitude
Unknown
Speed
Unknown
Apparent Right ascension
Unknown
Apparent Declination
Unknown
Sunlit
N/A
Visualization observer readout
Local Sidereal Time
07:21:57
Azimuth
Unknown
Elevation
Unknown
Doppler factor
Unknown
Orbital elements
Apogee altitude
1,127.567 km
Perigee altitude
787.494 km
Semi-major axis
7,335.668 km
Eccentricity
0.02318
Inclination
89.032°
RAAN
281.5856°
Arg. of periapsis
297.7542°
True anomaly
62.36331°
Mean anomaly
60.0292°
Eccentric anomaly
61.19293°
Mean motion
3.45449 °/min
Orbital period
104.21 mins
BSTAR
0.0003204
Loading maneuver chart data...
Computing Atmospheric mass density...
Loading historical data...
Loading historical data...
Loading historical data...
Loading historical data...
Loading historical data...
Loading historical data...
Loading historical data...

Documentation

Showing up to 5 results
|